Location: Darmstadt
(49.8706°N, 8.6494°E)
Time: 06:09:49
(UTC+01:00)

USA 307 - Pass Details

Date: 31 October 2020
Orbit: 569 x 579 km, 54.0° (Epoch: 30 November)

Event Time Altitude Azimuth Distance (km) Brightness Sun altitude
Rises 18:04:19 0° 295° (WNW) 2,792 7.4 -10.2°
Reaches altitude 10° 18:06:36 10° 292° (WNW) 1,889 6.5 -10.6°
Maximum altitude 18:10:50 61° 212° (SSW) 654 3.4 -11.3°
Drops below altitude 10° 18:15:02 10° 133° (SE) 1,873 5.2 -11.9°
Enters shadow 18:15:48 - 131° (SE) 2,173 5.5 -12.1°
